GFSSGP_850_thetae_231.txt.gz
Theta_e
326 320 331 331 324 321 323 324 324 326 329 332 333 333 334 336 334 336 339 336 320 312 310 317 330 329 318 320 321 326 326 321 316 316 313 310 308 307 308 308 309 311 311 309 310 310 310 310 310
326 320 326 328 325 326 323 322 325 323 327 337 336 337 337 338 338 339 338 331 323 315 310 311 325 322 316 324 328 330 328 322 315 311 309 308 307 308 308 309 310 311 311 310 310 310 310 310 310
323 320 326 324 324 326 323 322 322 328 328 333 334 337 338 337 338 338 337 331 326 318 310 311 313 314 318 325 329 333 329 321 313 309 308 307 307 308 308 309 309 310 309 309 310 310 310 310 310
321 320 321 323 327 324 323 323 324 327 331 332 333 335 338 337 336 337 336 333 330 321 311 312 314 312 323 328 329 331 328 319 311 309 308 308 308 308 308 308 309 309 309 309 309 309 309 309 309
320 319 320 322 322 323 322 324 324 326 330 331 334 335 338 338 337 336 336 335 333 322 312 316 314 319 324 328 328 327 321 312 310 309 309 310 309 309 308 308 309 309 309 309 309 309 309 309 310
317 317 319 325 325 322 321 324 324 325 328 330 334 336 338 338 338 337 337 336 333 319 316 315 319 327 326 325 324 318 313 311 310 310 309 310 314 311 309 309 309 309 309 310 309 310 309 309 310
314 314 320 321 325 323 323 325 322 325 329 330 335 334 337 338 338 338 337 336 331 315 320 315 327 332 327 323 316 315 313 310 310 310 309 309 311 311 309 310 310 309 309 310 309 309 309 310 310
316 314 318 318 325 324 323 325 327 325 329 331 334 334 336 338 338 338 337 335 326 316 324 319 318 320 319 322 322 317 313 311 311 311 309 309 309 309 309 310 309 309 310 310 310 310 310 311 312
317 319 322 322 323 323 323 324 326 325 329 333 335 334 335 337 338 337 336 331 317 317 325 325 324 322 324 323 323 321 313 312 312 311 310 309 309 310 310 310 310 310 310 310 310 310 311 312 314
315 321 322 319 319 321 324 323 324 325 330 331 332 335 335 336 337 337 335 330 317 319 327 327 327 323 324 323 321 316 313 313 313 311 310 310 311 312 313 312 311 311 311 310 310 311 313 315 317
316 318 319 321 321 321 322 324 325 323 325 330 331 335 336 337 336 336 335 334 327 319 325 328 329 326 325 325 321 315 313 314 313 312 311 311 313 313 314 314 313 313 312 312 312 314 316 318 320
314 316 317 317 320 322 324 324 321 323 326 329 330 331 336 336 335 335 335 334 329 322 320 328 329 328 328 326 325 320 314 315 314 312 313 314 313 313 315 316 315 313 313 314 316 318 319 321 323
314 314 316 318 320 318 321 322 323 321 324 325 330 335 335 336 335 333 333 333 330 323 322 322 327 329 328 328 326 322 315 316 317 315 313 313 313 313 315 315 314 314 314 317 320 321 321 323 324
314 316 317 318 322 321 320 323 322 323 323 326 330 334 335 335 334 332 332 332 330 325 323 322 324 329 329 327 325 321 315 317 317 315 314 315 316 318 319 318 317 316 317 319 321 322 322 323 324
314 315 317 319 320 321 321 322 322 323 324 329 334 335 335 335 334 333 333 332 329 326 324 324 322 328 326 321 323 320 319 318 316 315 319 321 321 322 322 322 321 320 321 321 322 322 323 324 325
315 316 318 318 319 322 322 325 321 318 331 332 334 335 335 334 334 333 333 331 328 327 326 326 325 325 325 322 320 322 324 322 320 322 324 325 324 324 324 324 324 324 323 323 323 323 323 325 326
315 316 317 320 319 323 322 322 318 317 326 331 332 333 334 334 333 333 332 329 327 327 327 326 325 323 323 323 322 324 326 325 321 323 324 325 325 326 325 325 324 325 324 323 323 323 324 325 327
317 316 320 322 323 322 322 322 321 318 315 328 331 331 331 330 332 332 332 329 327 327 326 326 325 323 322 322 322 324 327 326 323 319 324 325 326 327 327 327 327 327 326 325 324 323 325 326 326
316 320 321 318 318 322 322 322 321 315 312 320 325 331 331 331 330 329 332 331 327 325 326 326 327 327 325 326 321 317 319 317 319 321 325 326 327 329 329 329 329 330 330 329 329 328 327 327 328
315 319 319 317 318 321 322 323 320 316 312 308 311 320 327 329 331 332 331 331 333 333 334 330 327 329 329 329 329 325 322 322 323 325 328 328 328 330 330 329 330 330 329 329 329 328 328 327 327
311 315 317 318 315 316 320 319 315 314 311 307 307 308 317 324 329 330 333 332 333 335 336 331 328 331 330 333 333 332 330 329 328 328 330 330 330 330 329 330 329 330 329 329 329 329 328 328 328
316 313 315 316 316 319 314 321 311 311 311 306 305 306 308 316 324 327 330 332 333 335 335 331 330 331 332 332 332 332 331 331 329 329 330 330 330 329 330 329 330 330 329 328 328 328 327 327 326
314 313 313 313 312 315 316 317 315 311 311 309 306 306 307 309 313 326 325 328 330 331 332 333 333 333 332 332 331 331 331 331 332 331 330 330 329 329 329 328 328 328 327 326 325 325 324 324 323
310 313 313 312 313 316 316 316 315 313 312 309 307 307 308 309 309 309 315 322 322 323 328 329 329 329 328 328 327 325 329 328 326 333 331 330 328 327 327 327 326 326 326 324 322 319 319 322 322
311 311 313 311 307 314 314 316 314 310 309 306 306 307 309 309 310 310 309 309 308 311 314 315 317 319 321 320 322 327 328 331 331 331 330 329 328 326 325 325 324 322 319 318 320 321 319 319 319
310 310 310 311 314 314 312 315 313 307 308 309 308 307 308 309 309 310 310 310 309 309 308 308 309 311 312 313 312 313 316 320 322 323 322 319 315 312 310 310 310 311 312 312 313 314 318 319 319
310 310 310 310 303 310 309 307 308 308 306 306 307 308 309 309 309 309 309 310 310 310 310 309 309 309 310 311 311 311 311 311 311 311 310 310 310 311 311 311 312 312 313 314 314 315 318 318 318
309 308 308 306 307 311 310 307 308 307 307 306 305 306 307 308 308 309 309 309 309 310 310 310 310 310 310 310 310 310 311 311 312 313 314 314 313 313 313 313 313 314 314 314 315 319 318 317 317
307 308 308 307 309 311 312 308 304 307 306 305 305 306 306 307 307 307 308 309 309 310 310 309 309 309 309 309 310 310 310 310 310 309 309 309 309 310 310 311 312 313 313 314 315 314 313 313 313
308 309 308 306 307 308 307 309 305 305 306 305 304 306 307 307 307 307 307 307 309 309 309 307 307 308 308 307 307 307 306 307 306 306 306 306 306 306 306 306 307 307 307 307 307 308 308 307 305

GFSSGP_850_thetae_237.txt.gz
Theta_e
325 325 322 329 326 322 322 322 322 325 325 327 329 332 335 333 336 338 335 327 315 324 331 335 333 330 324 313 327 331 331 329 329 329 328 325 321 314 309 309 309 313 318 320 313 309 309 310 310
325 323 322 327 327 327 326 320 323 323 323 331 333 334 335 335 335 337 336 322 313 323 330 333 332 328 322 321 325 328 330 329 328 326 325 318 311 308 307 309 310 312 310 309 309 310 310 310 310
326 322 324 326 325 329 325 320 322 321 326 327 331 335 335 335 336 337 336 320 314 321 328 330 329 326 320 323 330 328 327 324 318 316 312 309 308 307 308 309 309 310 309 309 309 309 309 309 309
323 320 321 325 327 324 324 320 319 322 326 329 331 335 336 336 337 337 335 319 313 316 326 328 328 326 320 317 329 326 324 321 314 311 308 308 307 308 308 309 309 309 309 309 309 309 309 309 309
320 318 320 321 323 324 321 320 321 322 324 329 331 333 336 336 336 337 335 321 312 311 321 326 328 326 318 314 322 327 327 320 313 309 308 307 308 308 308 308 309 309 309 309 309 309 309 309 309
317 315 319 325 324 321 319 322 323 322 323 324 326 331 333 336 337 337 335 324 315 310 314 319 325 322 313 320 328 330 327 322 311 309 308 308 308 308 308 308 308 309 309 309 309 309 309 309 309
314 313 324 321 323 322 322 322 321 323 322 324 326 332 334 336 336 335 334 325 318 311 311 316 320 316 313 322 329 331 327 318 310 309 309 309 309 309 308 308 309 309 309 309 309 309 309 309 310
315 313 316 322 323 322 321 322 323 322 324 325 327 334 335 335 335 335 334 327 324 314 312 314 315 313 315 322 327 328 324 313 310 309 309 309 315 310 309 309 309 309 309 310 309 310 310 310 312
315 317 319 320 321 321 321 320 323 323 324 327 331 333 333 335 336 336 334 330 327 316 312 313 314 313 320 324 327 326 318 312 310 310 309 309 309 309 309 309 309 309 309 310 310 310 310 312 315
313 315 317 317 317 318 318 318 320 321 324 329 332 333 333 335 336 335 335 333 330 320 313 314 314 319 324 325 325 321 314 312 310 310 310 309 309 309 309 309 310 310 310 310 310 310 312 314 316
311 311 312 314 315 317 318 319 319 321 322 325 330 332 333 335 336 336 336 335 332 324 316 316 316 326 327 325 324 316 316 312 311 311 311 310 309 310 310 311 311 311 312 312 311 313 315 317 319
313 311 311 311 313 316 319 319 319 319 321 322 323 327 333 334 335 336 336 335 333 329 320 317 316 329 329 327 321 319 318 314 311 312 312 311 310 311 312 312 314 314 315 313 313 315 318 320 321
311 312 312 312 312 313 316 319 319 320 320 322 323 323 327 333 335 335 335 335 334 330 324 319 324 333 328 324 319 321 321 315 313 314 313 311 311 312 312 314 316 316 315 315 315 317 320 321 322
310 311 311 311 311 313 317 317 320 320 319 322 323 323 325 330 334 334 335 335 334 330 326 320 320 322 323 321 323 322 319 316 314 316 315 313 313 313 314 315 317 317 318 318 318 319 320 321 322
311 312 311 311 311 312 315 318 319 319 319 321 325 326 329 330 333 334 335 335 334 329 324 326 322 326 326 324 323 324 324 323 319 317 318 318 315 316 319 321 322 322 322 321 321 321 322 322 322
311 311 312 311 311 313 315 312 316 318 314 315 328 328 332 329 331 333 334 333 332 328 324 324 326 329 327 327 326 326 326 326 324 318 320 320 318 321 323 323 323 324 324 324 324 324 323 323 323
311 313 313 312 311 315 315 313 314 316 310 314 324 330 330 330 327 329 332 332 332 329 329 330 325 322 331 328 328 328 328 327 325 321 320 320 320 325 325 325 325 326 325 325 325 324 324 323 323
313 314 313 312 313 315 316 314 316 311 308 309 313 320 328 330 328 327 327 330 331 331 331 329 325 324 325 327 329 329 328 324 323 324 324 324 325 326 326 326 326 327 327 327 327 327 327 326 325
314 314 313 314 312 315 317 315 315 311 309 307 308 310 318 325 327 330 329 327 328 329 330 329 327 326 327 326 328 329 325 323 323 324 325 325 323 324 326 326 327 327 327 326 326 327 327 327 327
313 311 313 313 312 314 317 316 312 310 311 308 306 309 312 319 327 329 331 331 328 328 327 327 327 327 328 328 327 326 325 325 324 323 325 326 325 323 325 327 327 327 327 327 327 327 328 327 327
312 313 310 316 317 315 316 315 317 312 311 311 308 307 309 312 318 323 328 329 330 327 325 325 327 328 328 329 329 328 328 328 327 323 321 322 323 325 328 327 328 327 328 328 328 328 328 329 328
313 313 312 315 320 320 311 318 311 313 311 310 311 308 307 310 313 315 319 325 328 329 329 327 326 326 326 326 327 328 329 328 327 327 327 327 327 328 328 328 327 327 327 328 328 328 328 327 326
314 311 314 315 316 317 314 316 313 310 311 310 310 309 307 308 309 310 314 314 322 324 326 326 328 326 326 325 325 326 326 326 327 326 327 328 328 328 328 327 326 327 326 326 326 326 325 323 320
309 311 312 312 314 316 316 317 315 312 310 308 309 308 308 307 308 308 309 313 316 317 315 318 317 323 325 327 325 322 321 322 321 324 326 325 322 322 322 323 324 325 326 325 324 323 322 321 318
307 308 305 309 314 317 310 313 312 311 310 308 307 309 310 310 308 307 309 309 309 310 311 310 309 315 317 321 320 322 320 321 322 323 324 325 326 325 323 323 322 327 324 323 322 320 318 321 318
308 309 309 309 313 315 307 312 311 308 308 308 308 311 311 313 313 311 308 309 309 310 310 310 310 309 309 311 314 316 319 317 319 319 322 323 325 325 325 323 322 314 310 310 311 312 312 313 315
308 309 308 308 303 308 307 307 307 308 306 304 305 306 310 311 312 312 313 312 307 308 308 310 311 310 310 309 310 311 311 312 313 313 313 312 312 311 310 310 311 311 312 312 313 314 314 314 315
307 306 307 305 303 309 310 307 308 306 304 303 303 303 304 305 306 307 308 309 310 309 307 307 306 307 309 310 311 311 311 311 311 311 311 311 312 312 312 312 312 313 314 313 313 313 313 315 315
306 307 306 306 307 308 310 309 304 305 303 303 302 300 301 302 303 304 305 306 306 306 306 306 305 306 306 306 306 307 307 308 310 311 312 312 312 312 312 313 312 312 311 311 311 311 312 312 312
306 308 305 304 307 305 307 307 305 304 302 302 300 299 300 300 300 300 300 301 302 304 306 306 305 304 304 304 304 305 305 305 305 306 306 307 308 309 309 309 308 307 306 306 305 305 305 305 305

GFSSGP_850_thetae_240.txt.gz
Theta_e
325 325 322 329 331 329 330 327 326 328 329 328 330 331 334 335 337 338 333 325 321 328 333 336 333 330 321 309 322 330 332 332 333 333 332 329 325 320 311 310 310 319 323 321 316 309 310 310 310
326 325 322 329 330 331 329 328 326 326 325 330 332 333 334 335 337 336 336 324 319 328 333 335 332 329 319 321 331 333 331 328 331 330 328 325 318 310 308 309 309 313 313 310 310 310 310 310 310
326 323 326 329 331 330 328 327 327 326 325 325 329 335 336 337 338 337 336 322 320 327 332 334 332 327 319 318 331 331 330 329 327 326 323 317 310 308 308 309 311 313 311 310 310 310 309 309 309
323 322 324 329 330 329 328 326 325 325 325 329 331 334 337 336 337 337 336 318 325 330 334 333 332 326 317 322 324 327 327 325 320 318 312 309 308 308 309 309 310 311 309 309 309 309 309 309 309
321 322 328 328 327 327 327 326 324 326 327 329 332 333 334 334 336 337 335 319 325 327 334 332 330 325 317 325 329 327 326 321 314 312 309 308 308 308 308 309 309 309 309 309 309 309 309 309 309
322 321 324 325 326 325 326 325 325 326 326 326 328 328 329 329 334 337 336 323 328 328 331 331 329 324 318 326 329 325 324 319 313 309 308 308 308 308 308 309 309 309 309 309 309 309 309 309 309
317 322 319 320 321 322 324 323 324 326 326 326 326 329 331 330 334 336 335 327 327 324 331 330 329 325 320 316 322 326 327 321 313 309 308 308 308 308 308 308 309 309 309 309 309 309 309 309 311
316 319 317 318 319 321 321 322 323 324 325 326 326 328 328 336 334 336 335 329 327 319 330 332 330 328 324 321 327 331 329 323 311 309 309 309 309 308 308 308 309 309 309 309 309 309 310 310 312
317 316 315 315 316 318 321 322 322 322 323 325 330 332 333 333 335 336 334 330 327 316 319 330 330 328 327 325 328 332 330 323 311 310 309 309 311 310 309 309 309 309 309 310 310 310 310 311 315
315 316 314 315 317 318 319 320 321 322 323 324 328 332 331 333 335 335 334 331 327 327 324 327 326 321 325 325 328 330 328 318 312 311 310 314 318 316 311 310 310 310 310 310 310 310 311 313 316
311 312 312 312 313 313 316 319 320 321 323 323 324 327 332 333 335 335 333 332 329 327 327 326 326 322 314 324 326 328 326 317 313 312 312 313 316 313 311 310 311 310 311 311 312 312 314 316 318
313 311 311 311 311 311 312 313 319 320 321 321 321 323 328 332 335 336 333 333 330 327 326 322 326 322 316 325 326 327 323 317 313 313 313 313 311 311 311 312 314 313 313 314 313 314 317 319 320
313 312 312 312 312 312 313 311 312 316 319 320 320 324 326 330 334 335 334 333 331 328 326 321 325 323 323 327 326 324 319 318 316 313 314 313 312 311 312 313 314 316 316 315 315 315 318 321 322
311 312 312 312 312 312 313 313 311 311 314 319 320 322 327 329 331 333 333 333 331 330 328 326 325 325 326 328 327 323 321 321 319 314 315 314 312 313 313 314 315 317 317 317 317 317 319 321 322
312 313 312 313 312 313 312 313 314 312 312 317 319 319 328 328 330 331 332 333 332 331 330 327 324 319 331 333 329 321 322 322 317 315 316 317 315 314 314 316 318 320 321 321 320 321 321 322 322
312 312 315 313 313 313 313 314 312 312 316 316 318 323 330 330 329 331 331 331 333 332 331 328 324 320 329 329 322 322 324 323 323 322 317 318 319 317 317 321 322 323 323 324 323 324 324 323 324
313 316 315 314 312 313 314 314 315 313 312 314 319 324 329 329 326 329 330 328 331 330 329 328 327 324 324 329 326 324 324 326 326 325 321 319 319 319 323 325 325 325 325 325 325 325 325 325 326
315 316 315 314 313 313 314 314 314 312 311 311 313 319 326 325 326 327 328 328 329 328 327 327 327 330 329 328 329 329 327 328 328 327 324 321 323 323 325 326 326 326 327 327 326 327 327 327 327
313 315 315 314 312 314 315 315 314 312 311 309 311 314 317 317 324 327 325 328 330 329 328 329 331 329 327 326 329 330 328 328 327 323 322 324 325 325 325 326 326 327 326 326 326 326 326 327 327
313 315 315 314 313 315 316 314 313 312 311 309 310 311 311 313 320 325 324 324 327 330 330 330 330 329 328 328 327 327 327 326 324 323 324 326 327 326 324 324 325 326 326 326 326 327 327 327 328
314 314 312 314 315 315 316 315 313 311 309 309 309 310 310 310 313 316 318 321 323 324 326 328 329 329 329 329 329 328 329 328 327 327 327 324 323 326 325 324 327 327 327 327 327 328 328 328 329
315 313 316 314 319 318 313 318 312 310 308 308 309 308 309 310 312 315 312 315 320 323 323 325 328 328 329 329 330 329 329 328 328 328 327 326 325 325 325 326 328 328 328 327 327 327 328 328 328
314 312 315 315 317 317 315 317 313 308 309 309 309 308 307 308 309 309 309 312 312 315 318 322 324 325 326 326 326 328 328 328 327 326 327 327 328 328 327 328 328 328 327 326 326 326 327 325 323
310 312 314 314 315 319 315 317 313 312 308 309 309 308 308 308 309 308 308 310 309 311 309 312 316 319 323 324 324 326 326 326 325 324 325 325 325 322 323 323 322 323 322 322 324 324 323 322 321
311 314 320 320 320 319 311 313 311 309 309 309 309 310 310 310 309 310 309 309 310 310 310 309 309 309 310 317 317 322 321 321 322 323 323 324 325 322 324 324 323 321 321 323 317 318 321 320 320
311 312 316 318 317 316 310 313 312 309 307 307 309 311 310 309 312 310 310 310 309 310 311 312 312 311 310 309 309 311 311 312 313 314 315 317 321 317 319 319 320 317 313 310 310 311 312 313 315
311 312 310 313 309 313 311 310 308 307 306 305 305 306 305 305 307 310 310 311 310 309 309 310 313 312 312 312 313 311 311 311 310 310 313 312 312 314 315 314 313 310 310 312 312 313 313 314 315
309 308 312 313 315 314 311 310 309 308 307 306 305 304 303 303 305 305 305 306 306 306 308 308 309 312 311 312 312 312 312 311 311 311 312 311 311 312 311 311 312 313 313 314 313 312 312 313 314
311 311 309 310 311 313 313 311 307 307 307 304 301 301 301 301 301 302 303 304 305 304 304 304 304 305 305 306 308 309 310 309 311 312 312 313 313 313 313 313 313 314 314 312 311 311 312 312 312
307 310 309 310 311 309 310 311 307 306 304 302 300 299 299 299 299 299 300 300 300 301 303 304 304 304 303 303 303 303 304 305 305 306 307 309 310 311 311 311 311 311 309 308 307 307 307 306 305

GFSSGP_850_thetae_246.txt.gz
Theta_e
326 326 324 329 333 331 330 329 328 328 327 328 329 330 329 331 332 341 333 328 330 332 328 333 330 325 321 320 321 319 319 327 330 326 329 327 323 317 310 311 316 321 322 322 316 310 310 310 310
322 327 325 328 333 333 329 328 328 327 327 330 331 331 330 330 340 339 331 329 330 333 326 333 331 327 324 317 321 318 322 329 334 332 331 328 321 313 309 311 317 323 324 319 310 310 310 310 309
320 324 325 330 329 330 329 326 326 326 327 327 327 328 331 339 340 340 339 328 330 336 325 333 332 328 323 312 315 319 325 331 334 332 332 326 319 310 308 309 310 317 321 319 310 310 309 309 309
320 324 325 325 328 328 327 326 327 327 326 326 327 326 334 337 341 340 339 327 336 336 328 334 333 328 320 311 320 326 329 333 334 332 329 325 316 308 308 309 309 314 322 310 309 309 309 309 309
318 321 323 323 323 323 323 323 323 327 326 327 328 329 331 339 335 330 335 327 336 338 333 335 333 327 317 322 329 332 332 332 330 327 324 316 310 308 310 312 311 310 310 309 309 309 309 309 309
317 317 319 321 322 321 322 324 324 326 326 326 328 328 330 337 333 330 333 328 336 338 335 336 332 327 319 325 331 332 331 328 327 322 316 311 309 311 314 312 311 310 309 309 309 309 309 309 309
316 319 318 317 318 319 319 319 321 324 325 324 325 325 328 332 335 332 332 330 335 338 333 336 332 327 322 322 330 331 330 327 323 316 311 309 310 312 315 314 310 309 309 309 309 309 309 309 309
317 315 315 316 318 319 318 318 320 322 323 323 322 324 327 339 339 337 329 330 335 337 335 335 331 328 326 319 325 327 327 326 321 314 310 309 310 312 312 310 309 309 309 309 309 309 309 309 310
316 316 316 316 316 317 316 317 318 320 321 322 323 322 330 335 336 337 331 329 336 336 334 334 331 330 330 322 327 329 327 325 323 315 310 310 310 310 310 310 309 310 309 309 309 309 309 309 311
314 317 317 313 313 313 314 313 314 315 319 319 321 323 327 335 334 335 334 329 334 335 333 333 332 330 328 324 326 329 325 328 326 316 311 311 318 323 317 311 309 310 310 310 310 310 310 310 313
315 314 314 313 314 313 313 313 313 313 312 316 317 319 325 326 326 328 337 332 331 334 333 333 332 331 330 328 324 323 326 327 328 318 313 316 324 324 323 317 313 310 310 310 310 311 311 311 314
314 315 315 314 314 314 314 314 313 313 313 313 312 313 320 323 325 328 330 336 332 332 332 336 332 330 330 329 327 326 329 328 328 321 318 321 324 325 322 316 315 312 311 313 315 315 314 314 315
314 314 314 314 314 314 314 314 313 314 313 313 313 312 313 320 322 326 330 334 334 331 332 331 333 331 330 328 328 329 329 328 327 322 320 317 319 322 321 321 319 319 317 318 316 317 315 315 318
314 314 314 314 315 315 315 314 314 314 314 314 313 313 312 313 318 321 329 330 334 332 331 330 330 330 329 328 329 328 328 327 326 324 321 316 315 315 316 317 318 317 317 322 322 320 323 323 325
314 314 314 316 315 314 314 314 314 315 315 314 313 313 313 312 314 320 323 331 331 333 330 330 329 329 327 328 328 327 327 327 324 324 321 316 316 320 317 315 314 315 318 322 324 323 321 321 322
314 315 316 315 315 315 314 315 315 314 314 314 314 315 318 322 323 323 326 330 331 332 331 330 328 328 327 326 327 328 328 327 325 323 323 318 315 314 314 314 314 317 324 324 325 325 325 325 325
316 315 315 315 314 314 314 315 314 313 314 313 314 315 315 319 320 323 326 328 329 330 331 329 328 327 327 326 325 326 327 327 326 325 323 320 317 317 317 316 316 323 325 325 325 325 325 325 325
314 315 315 316 315 313 314 313 313 313 312 311 311 312 313 316 318 322 325 326 329 329 331 330 328 327 327 326 327 326 326 327 325 326 325 325 324 319 318 319 321 321 325 326 327 326 326 325 325
313 315 315 315 314 313 315 316 314 311 310 310 308 310 311 315 314 318 324 323 329 329 330 330 328 328 327 327 326 325 326 327 324 325 326 327 327 324 323 322 322 326 326 326 328 327 326 324 324
315 315 315 314 314 314 315 312 311 309 309 309 308 307 310 311 311 313 321 320 323 329 330 330 329 328 327 326 328 326 326 324 325 326 326 327 328 326 323 323 324 327 327 327 327 325 324 324 324
314 312 312 314 314 313 313 314 312 308 308 306 306 306 309 309 309 310 314 317 312 327 329 329 329 329 328 327 327 326 326 325 326 326 327 328 324 323 323 325 325 325 325 325 326 326 325 325 326
314 314 313 314 316 319 313 318 311 311 308 307 303 304 306 307 309 308 309 312 311 320 326 329 329 329 328 327 328 327 327 326 326 326 325 324 325 326 326 326 326 327 327 325 326 327 327 328 327
312 312 313 315 318 317 314 316 312 309 309 307 306 304 307 306 308 308 308 309 310 312 316 321 323 324 326 327 327 327 327 326 327 326 323 322 324 323 324 324 327 326 325 325 326 326 324 325 324
311 312 314 315 317 320 311 313 312 310 308 306 307 306 309 308 307 307 307 310 310 311 312 314 315 314 317 318 323 324 326 326 326 327 326 325 326 326 324 325 325 324 323 321 321 321 321 320 321
311 312 316 320 316 314 311 312 311 309 307 308 308 306 307 309 308 308 308 310 310 310 310 311 311 311 311 310 313 316 318 319 322 319 322 322 322 321 318 321 320 319 318 317 313 313 313 312 311
310 312 312 316 315 314 310 310 310 308 308 306 305 305 305 306 308 308 309 309 309 309 309 309 310 311 311 311 311 312 312 313 312 313 313 314 314 314 315 314 315 314 314 313 313 313 312 311 310
311 311 310 313 309 312 311 311 309 308 307 306 305 303 303 302 303 304 306 308 308 308 308 308 308 309 309 310 311 311 312 312 312 313 313 313 313 314 313 313 313 314 314 313 312 312 312 312 312
310 309 311 309 311 316 311 310 309 309 307 305 303 302 301 301 301 301 301 303 303 304 305 307 308 309 308 308 310 311 311 311 311 312 311 311 311 311 311 311 311 311 311 312 313 313 314 315 315
310 312 311 310 310 314 315 309 307 307 304 302 302 301 300 300 300 299 299 299 300 301 302 303 304 305 306 305 306 307 308 309 307 308 309 310 312 312 312 312 312 313 313 314 314 314 313 313 313
309 310 311 310 311 309 310 309 307 303 302 302 301 300 300 300 300 299 299 299 299 299 299 300 300 303 303 303 303 303 303 303 303 303 304 305 307 308 310 311 312 313 313 313 313 312 312 312 311